Location: Unspecified
(50.7693°N, 0.0000°E)
Time: 17:16:10
(UTC+00:00)

Transit 2A Rocket - Pass Details

Date: 26 October 2019
Orbit: 594 x 909 km, 66.7° (Epoch: 13 November)

Event Time Altitude Azimuth Distance (km) Brightness Sun altitude
Exits shadow 06:06:01 - 282° (WNW) 2,304 6.8 -6.1°
Reaches altitude 10° 06:06:48 10° 289° (WNW) 2,083 6.6 -6.0°
Maximum altitude 06:10:00 18° 332° (NNW) 1,571 6.3 -5.5°
Drops below altitude 10° 06:13:05 10° 16° (NNE) 1,993 7.2 -5.0°
Sets 06:15:57 0° 36° (NE) 2,870 8.3 -4.6°
